Aérodrome :
LOGIN :

S'inscrire | Disclaimer

   EN    FR    IT 

 










Légende :    VFR   VFR Marginal   IFR   IFR Intensif   IFR Très Intensif
Visi : 
Plafond : 
>= 8 km
>= 3000ft
5 à 8 km
1000 à 3000 ft
1500m à 5 km
500 à 1000 ft
800 à 1500m
200 à 500 ft
< 800m
< 200 ft
Symboles :   Orages  Brouillard  Fortes neiges  Fortes précipitations  Vent > 20 kt
SIGMETs :   Divers  Orages  Givrage  Turbulence  Onde Orograph.  Cendres Volcan.







- Altitude de l'aérodrome : 2026 ft
- Code IATA : TOJ


LETO - Madrid Torrejon

DERNIER METAR :
  • 241200Z 21003KT CAVOK 34/12 Q1017 NOSIG

METARs EXPIRÉS :
  • 241100Z 16001KT CAVOK 31/12 Q1018 NOSIG
  • 241000Z 35001KT CAVOK 30/12 Q1018 NOSIG

TAF TAF LETO
Valide du 24 à 12h jusqu'au 25 à 12h UTC


241100Z 2412/2512 VRB05KT CAVOK TX38/2416Z TN20/2505Z
BECMG 2420/2422 04010KT
BECMG 2502/2504 VRB05KT
Pas de NOTAMs connus pour ce terrain.



MET'MAP, la Météo Aéronautique d'un coup d'oeil ! - Copyright ORBIFLY Décembre 2007 - Disclaimer

ORBIFLY MET'MAP TEAM :

Programmation & Développement : Alexandra Zaïnal
Conception & Développement : Baudouin d'Aumeries
Co-Programmation & Développement : Marc-Olivier Méhu
Soutien technique & logistique : Manuel Goepfert

Contact : metmap@orbifly.com




SOURCES & CREDITS :

   NOAA